Location: Observatoire de la D�couverte de Val-B�lair
(46.8294°N, 71.4556°W)
Time: 18:46:58
(UTC-05:00)

ISS - Visible Passes

Search period start: 25 January 2020 00:00
Search period end: 04 February 2020 00:00
Orbit: 416 x 423 km, 51.6° (Epoch: 26 January)

Date Brightness Start Highest point End Pass type
(mag) Time Alt. Az. Time Alt. Az. Time Alt. Az.
25 Jan -3.7 17:51:06 10° WSW 17:54:29 78° NNW 17:56:22 24° ENE visible
25 Jan -0.8 19:28:26 10° WNW 19:29:20 16° WNW 19:29:20 16° WNW visible
26 Jan -2.7 18:40:46 10° W 18:43:48 38° NNW 18:43:48 38° NNW visible
27 Jan -3.1 17:53:05 10° W 17:56:22 45° NNW 17:58:15 22° NE visible
27 Jan -0.7 19:30:28 10° WNW 19:31:13 15° WNW 19:31:13 15° WNW visible
28 Jan -2.5 18:42:50 10° WNW 18:45:39 33° NNW 18:45:39 33° NNW visible
29 Jan -2.7 17:55:10 10° WNW 17:58:19 35° N 18:00:04 21° NE visible
29 Jan -0.8 19:32:18 10° WNW 19:33:02 15° NW 19:33:02 15° NW visible
30 Jan -2.7 18:44:43 10° WNW 18:47:27 37° NNW 18:47:27 37° NNW visible
31 Jan -2.8 17:57:06 10° WNW 18:00:17 36° N 18:01:54 22° ENE visible
31 Jan -0.9 19:33:59 10° WNW 19:34:52 17° WNW 19:34:52 17° WNW visible
01 Feb -3.3 18:46:25 10° WNW 18:49:21 54° NNW 18:49:21 54° NNW visible
02 Feb -3.3 17:58:50 10° WNW 18:02:08 47° NNE 18:03:54 23° E visible
02 Feb -1.0 19:35:43 10° WNW 19:36:52 19° W 19:36:52 19° W visible
03 Feb -3.6 18:48:03 10° WNW 18:51:26 68° SSW 18:51:29 68° SSW visible
